[[{"header":{"parameterUnit":"m.s-1","parameterCategory":1,"la1":30.2992,"la2":30.254,"lo1":-89.0895,"lo2":-89.0443,"dy":0.0025,"dx":0.0025,"nx":19,"ny":19,"refTime":"2026-04-08T03:00:00:Z","depth":0,"parameterNumber":2,"parameterNumberName":"U-component_of_WINDS"},"data":[0,0,0,-6.1828,-6.1831,-6.1964,-6.1965,-6.2173,-6.2176,0,0,0,0,0,0,0,0,0,0,0,-6.1811,-6.1813,-6.1828,-6.1832,-6.1964,-6.1965,-6.2173,-6.2176,0,0,0,0,0,0,0,0,0,0,0,-6.181,-6.1812,-6.1815,-6.1832,-6.1964,-6.1965,-6.2173,-6.2059,0,0,0,0,0,0,0,0,0,0,-6.1923,-6.1928,-6.1812,-6.1815,-6.1833,-6.1964,-6.1965,-6.2053,-6.2066,-6.2129,0,-6.2191,0,-6.2187,-6.2192,-6.2193,0,0,0,-6.1815,-6.1918,-6.1933,-6.1815,-6.1834,-6.1964,-6.19,-6.206,-6.2075,-6.2147,-6.2193,-6.22,-6.219,-6.2194,-6.2195,-6.2613,-6.2616,0,0,-6.1808,-6.1847,-6.1923,-6.1944,-6.1925,-6.1896,-6.1904,-6.2068,-6.2121,-6.2194,-6.2204,-6.2194,-6.2195,-6.2197,-6.261,-6.2614,0,0,0,-6.1798,-6.1843,-6.1853,-6.1937,-6.1958,-6.19,-6.191,-6.2114,-6.2114,-6.2206,-6.2196,-6.2197,-6.22,-6.2607,-6.2612,-6.2784,0,0,0,-6.1793,-6.1836,-6.1851,-6.1876,-6.1955,-6.2037,-6.1953,-6.2103,-6.212,-6.2195,-6.2197,-6.2202,-6.2604,-6.261,-6.2773,-6.286,0,0,0,-6.1794,-6.1836,-6.1863,-6.1878,-6.1936,-6.2033,-6.2043,-6.2106,-6.2115,-6.2193,-6.2203,-6.2602,-6.2609,-6.2763,-6.2843,-6.2983,0,0,0,-6.1808,-6.2014,-6.1866,-6.2093,-6.1935,-6.2138,-6.2041,-6.2191,-6.2278,-6.2198,-6.2605,-6.2611,-6.276,-6.2833,-6.2973,-6.3109,-6.3169,0,0,-6.209,-6.205,-6.218,-6.2051,-6.2291,-6.2115,-6.238,-6.2424,-6.2396,-6.2543,-6.2552,-6.2777,-6.2842,-6.2981,-6.3487,-6.3535,0,0,0,-6.2282,-6.2377,-6.2432,-6.2516,-6.2554,-6.2594,-6.2593,-6.2609,-6.2732,-6.2479,-6.2862,-6.29,-6.298,-6.3044,-6.3084,-6.3151,-6.2642,-6.2641,-6.264,-6.2739,-6.2691,-6.2904,-6.2874,-6.2957,-6.2954,-6.3018,-6.304,-6.2967,-6.3059,-6.3103,-6.3416,-6.3492,-6.3522,-6.3592,-6.3169,-6.317,-6.3171,-6.3171,-6.315,-6.3277,-6.3176,-6.3346,-6.3296,-6.3439,-6.3444,-6.3389,-6.3516,-6.3378,-6.3446,-6.3302,-6.3576,-6.3635,-6.3184,-6.3181,-6.318,-6.3179,-6.3178,-6.3445,-6.3498,-6.3513,-6.3631,-6.3728,-6.3689,-6.3817,-6.3765,-6.3718,-6.3785,-6.3828,-6.3825,-6.3818,-6.3809,-6.381,-6.3811,-6.3812,-6.3813,-6.3813,-6.3747,-6.3758,-6.3871,-6.3929,-6.3977,-6.4034,-6.4033,-6.408,-6.4119,-6.4072,-6.4072,-6.3993,-6.361,-6.3516,-6.383,-6.3827,-6.3825,-6.3823,-6.3822,-6.4185,-6.4077,-6.4252,-6.43,-6.4364,-6.4465,-6.4397,-6.4497,-6.4528,-6.4593,-6.4499,-6.4224,-6.4179,-6.4146,-6.4069,-6.4507,-6.4507,-6.4507,-6.4507,-6.4436,-6.4408,-6.4575,-6.4656,-6.4729,-6.4686,-6.4888,-6.4889,-6.4875,-6.4892,-6.482,-6.4712,-6.4681,-6.4655,-6.4611,-6.4538,-6.5085,-6.5086,-6.5086,-6.4704,-6.468,-6.4861,-6.4843,-6.489,-6.4932,-6.512,-6.5219,-6.5179,-6.5109,-6.4904,-6.488,-6.4704,-6.4649,-6.4577,-6.451,-6.4374,0,0]},{"header":{"parameterUnit":"m.s-1","parameterCategory":1,"la1":30.2992,"la2":30.254,"lo1":-89.0895,"lo2":-89.0443,"dy":0.0025,"dx":0.0025,"nx":19,"ny":19,"refTime":"2026-04-08T03:00:00:Z","depth":0,"parameterNumber":3,"parameterNumberName":"V-component_of_WINDS"},"data":[0,0,0,0.2387,0.2388,0.2424,0.2424,0.2445,0.2445,0,0,0,0,0,0,0,0,0,0,0,0.2363,0.2363,0.2387,0.2388,0.2424,0.2424,0.2445,0.2445,0,0,0,0,0,0,0,0,0,0,0,0.2363,0.2363,0.2362,0.2388,0.2424,0.2424,0.2445,0.2427,0,0,0,0,0,0,0,0,0,0,0.2396,0.2361,0.2363,0.2362,0.2388,0.2423,0.2424,0.2426,0.2428,0.2419,0,0.2409,0,0.2427,0.2445,0.2445,0,0,0,0.2397,0.2359,0.2381,0.2362,0.2388,0.2423,0.241,0.2427,0.2429,0.2421,0.2409,0.2411,0.2428,0.2445,0.2445,0.2366,0.2365,0,0,0.2395,0.2362,0.238,0.2382,0.2376,0.2409,0.2411,0.2429,0.2413,0.241,0.2412,0.2428,0.2445,0.2445,0.2366,0.2365,0,0,0,0.2383,0.236,0.2382,0.238,0.2389,0.241,0.2412,0.2413,0.2423,0.2412,0.2428,0.2445,0.2445,0.2367,0.2366,0.2292,0,0,0,0.2382,0.2353,0.2381,0.2361,0.2388,0.2401,0.2395,0.2421,0.2425,0.2428,0.2445,0.2445,0.2368,0.2367,0.2296,0.2261,0,0,0,0.2365,0.2351,0.2352,0.2359,0.2373,0.2402,0.2413,0.2423,0.2434,0.2445,0.2445,0.2369,0.2367,0.2299,0.2267,0.2229,0,0,0,0.2337,0.2285,0.235,0.2299,0.2373,0.2357,0.2414,0.2403,0.2404,0.2445,0.2368,0.2366,0.2301,0.2271,0.2233,0.2189,0.2168,0,0,0.2253,0.2274,0.2247,0.2306,0.227,0.2354,0.2307,0.2339,0.237,0.2365,0.2364,0.2294,0.2268,0.223,0.2069,0.2052,0,0,0,0.2209,0.2188,0.2186,0.2186,0.2211,0.2228,0.2272,0.2284,0.2281,0.2361,0.2273,0.2258,0.2237,0.2217,0.2203,0.2186,0.2357,0.2357,0.2357,0.204,0.2084,0.2041,0.2089,0.2089,0.2135,0.2138,0.2161,0.2206,0.2184,0.2181,0.2079,0.2055,0.2044,0.2026,0.2164,0.2164,0.2164,0.2164,0.1919,0.1896,0.1958,0.1938,0.1984,0.1967,0.2009,0.2041,0.2031,0.2084,0.2068,0.2119,0.2025,0.2011,0.2158,0.2159,0.216,0.216,0.2161,0.1811,0.1808,0.1825,0.183,0.1828,0.1879,0.1867,0.191,0.195,0.1935,0.1935,0.1937,0.1941,0.1933,0.1932,0.1932,0.1932,0.1931,0.1931,0.1691,0.1713,0.1698,0.172,0.1726,0.1739,0.1785,0.1791,0.1809,0.1841,0.1841,0.1885,0.2009,0.2037,0.1926,0.1927,0.1927,0.1928,0.1928,0.1548,0.1588,0.1564,0.157,0.1599,0.1593,0.165,0.1659,0.1671,0.1662,0.1712,0.1797,0.182,0.1832,0.1855,0.1704,0.1704,0.1704,0.1704,0.1455,0.1472,0.1458,0.1464,0.1475,0.1523,0.1493,0.1528,0.1571,0.158,0.1609,0.1645,0.1655,0.1673,0.1688,0.171,0.1526,0.1525,0.1525,0.1368,0.1388,0.1355,0.1398,0.1425,0.1446,0.1418,0.1421,0.1478,0.1519,0.1588,0.1595,0.1654,0.1672,0.1711,0.1733,0.1775,0,0]}]]